Weather in Ballarat

Australia     37°33′30″S   143°51′18″E
temp.,
°C
wind,
m/s
gust,
m/s
humid.,
%
clouds,
%
prec.,
mm/h
press.,
hPa
HPBL,
m
15 august, mon
mon1501:00+7w51297100 0.4 1006980
04:00+7w51297100 1.0 1005923
07:00+7w4129697 0.3 1005815
10:00+7wnw51094100 0.6 1006982
13:00+8w51190100 1.3 10041226
16:00+8w5119194 2.3 10041074
19:00+6w4119599 0.3 1006817
22:00+6w41195100 0.5 1007921
16 august, tue
tue1601:00+7w51298100 0.4 1007738
04:00+7wsw41199100 0.8 1008836
07:00+8sw4119777 0.4 1011813
10:00+9sw5119338 0.7 1013886
13:00+11sw598288 0.5 10141057
16:00+11ssw478240 0.9 1013846
19:00+8ssw399548 0.2 1018410
22:00+7ssw3696100 0.2 1019456
17 august, wed
wed1701:00+7ssw1197100 0.1 101947
04:00+7w1193100 0.1 101945
07:00+6nne229596 0.0 102036
10:00+9n4880100 0.0 1018403
13:00+9n51183100 0.0 1016527
16:00+9n61483100 0.0 1015711
19:00+9n61583100 0.1 1015828
22:00+10n71673100 0.1 1013944
18 august, thu
thu1801:00+10n61672100 0.1 10121024
04:00+10nne51472100 0.1 1011676
07:00+10n61565100 0.0 1011621
10:00+10nne7157097 0.1 1010641
13:00+8n61696100 1.6 10081105
16:00+11nne81782100 3.4 10021123
19:00+10n92171100 0.3 10001690
22:00+9nnw82096100 2.7 9991712
19 august, fri
fri1901:00+5wnw71795100 0.8 10051454
04:00+4w6149597 1.2 10081111
07:00+4w5129552 0.3 1011968
10:00+7wsw5118441 0.4 10131324
13:00+9w5963100 0.5 10131664
16:00+9w41071100 0.6 10131360
19:00+8wnw4107599 0.1 1014890
22:00+7nw51385100 0.1 10141001